QPF
0.00 0.00 0.00 0.00 0.00 0.00 0.00 0.00 0.00 0.00 0.00 0.00 0.00 0.00 0.00 0.00 0.00 0.00 0.00 0.00 0.00 0.00 0.00 0.00 0.00 0.00 0.00 0.00 0.00 0.01 0.01 0.01 0.01 0.01 0.01 0.00 0.00 0.01 0.03 0.03 0.03 0.03 0.04
0.00 0.00 0.00 0.00 0.00 0.00 0.00 0.00 0.00 0.00 0.00 0.00 0.00 0.00 0.00 0.00 0.00 0.00 0.00 0.00 0.00 0.00 0.00 0.00 0.00 0.00 0.00 0.00 0.00 0.01 0.01 0.01 0.00 0.01 0.01 0.01 0.01 0.01 0.03 0.03 0.03 0.03 0.05
0.01 0.01 0.01 0.00 0.00 0.00 0.00 0.00 0.00 0.00 0.00 0.00 0.00 0.00 0.00 0.00 0.00 0.00 0.00 0.00 0.00 0.00 0.00 0.00 0.00 0.00 0.00 0.00 0.00 0.00 0.01 0.01 0.00 0.00 0.01 0.01 0.02 0.02 0.03 0.02 0.02 0.03 0.04
0.01 0.01 0.00 0.00 0.00 0.00 0.00 0.00 0.00 0.00 0.00 0.00 0.00 0.00 0.00 0.00 0.00 0.00 0.00 0.00 0.00 0.00 0.00 0.00 0.00 0.00 0.00 0.00 0.01 0.00 0.00 0.00 0.00 0.00 0.00 0.00 0.01 0.01 0.02 0.02 0.02 0.02 0.02
0.01 0.00 0.00 0.00 0.00 0.00 0.00 0.00 0.00 0.00 0.00 0.00 0.00 0.00 0.00 0.00 0.00 0.00 0.00 0.00 0.00 0.00 0.00 0.00 0.00 0.00 0.00 0.00 0.01 0.01 0.01 0.00 0.00 0.01 0.00 0.00 0.01 0.00 0.01 0.03 0.03 0.02 0.01
0.00 0.00 0.00 0.00 0.00 0.00 0.00 0.00 0.00 0.00 0.00 0.00 0.00 0.00 0.00 0.00 0.00 0.00 0.00 0.00 0.00 0.00 0.00 0.00 0.00 0.00 0.00 0.00 0.00 0.01 0.01 0.01 0.00 0.00 0.00 0.01 0.01 0.01 0.01 0.03 0.03 0.02 0.01
0.00 0.00 0.00 0.00 0.00 0.00 0.00 0.00 0.00 0.00 0.00 0.00 0.00 0.00 0.00 0.00 0.00 0.00 0.00 0.00 0.00 0.00 0.00 0.00 0.00 0.00 0.00 0.00 0.00 0.00 0.00 0.00 0.00 0.00 0.00 0.00 0.00 0.00 0.01 0.01 0.01 0.01 0.01
0.00 0.00 0.00 0.00 0.00 0.00 0.00 0.00 0.00 0.00 0.00 0.00 0.00 0.00 0.00 0.00 0.00 0.00 0.00 0.01 0.00 0.00 0.00 0.00 0.00 0.00 0.00 0.00 0.00 0.00 0.00 0.00 0.00 0.00 0.00 0.00 0.00 0.00 0.00 0.01 0.01 0.01 0.01
0.00 0.00 0.00 0.00 0.00 0.00 0.00 0.00 0.00 0.00 0.00 0.00 0.01 0.01 0.00 0.00 0.00 0.00 0.00 0.01 0.01 0.00 0.00 0.00 0.00 0.00 0.00 0.00 0.00 0.00 0.00 0.00 0.00 0.00 0.00 0.00 0.00 0.00 0.00 0.00 0.01 0.02 0.02
0.00 0.00 0.00 0.00 0.00 0.00 0.00 0.00 0.00 0.00 0.00 0.00 0.01 0.01 0.01 0.01 0.01 0.01 0.01 0.01 0.01 0.00 0.00 0.00 0.00 0.00 0.00 0.00 0.00 0.00 0.00 0.00 0.00 0.00 0.00 0.00 0.00 0.00 0.00 0.01 0.01 0.01 0.02
0.00 0.00 0.00 0.00 0.00 0.00 0.00 0.00 0.00 0.00 0.00 0.01 0.01 0.01 0.01 0.01 0.01 0.01 0.01 0.01 0.01 0.00 0.00 0.00 0.00 0.00 0.00 0.00 0.00 0.00 0.00 0.00 0.00 0.00 0.00 0.00 0.00 0.00 0.00 0.00 0.00 0.00 0.01
0.00 0.00 0.00 0.00 0.00 0.00 0.00 0.00 0.00 0.01 0.02 0.01 0.01 0.02 0.02 0.02 0.02 0.01 0.02 0.01 0.00 0.00 0.00 0.00 0.00 0.00 0.00 0.00 0.00 0.00 0.00 0.00 0.00 0.00 0.00 0.00 0.00 0.00 0.00 0.00 0.00 0.00 0.01
0.00 0.00 0.00 0.00 0.00 0.00 0.00 0.00 0.00 0.00 0.02 0.02 0.02 0.02 0.03 0.02 0.02 0.02 0.01 0.00 0.00 0.00 0.00 0.00 0.00 0.00 0.00 0.00 0.00 0.00 0.00 0.00 0.00 0.00 0.00 0.00 0.00 0.00 0.00 0.00 0.00 0.00 0.00
0.00 0.00 0.00 0.00 0.00 0.00 0.00 0.00 0.00 0.00 0.01 0.02 0.02 0.03 0.04 0.03 0.03 0.02 0.01 0.00 0.00 0.00 0.00 0.00 0.00 0.00 0.00 0.00 0.00 0.00 0.00 0.00 0.00 0.00 0.00 0.00 0.00 0.00 0.00 0.00 0.00 0.00 0.00
0.00 0.00 0.00 0.00 0.00 0.00 0.00 0.00 0.00 0.01 0.01 0.03 0.04 0.04 0.04 0.04 0.03 0.01 0.01 0.00 0.00 0.00 0.00 0.00 0.00 0.00 0.00 0.00 0.00 0.00 0.00 0.00 0.00 0.00 0.00 0.00 0.00 0.00 0.00 0.00 0.00 0.00 0.00
0.00 0.00 0.00 0.00 0.00 0.00 0.00 0.00 0.00 0.01 0.02 0.03 0.04 0.04 0.03 0.03 0.02 0.01 0.01 0.00 0.00 0.00 0.00 0.00 0.00 0.00 0.00 0.00 0.00 0.00 0.00 0.00 0.00 0.00 0.00 0.00 0.00 0.00 0.00 0.00 0.00 0.00 0.00
0.00 0.00 0.00 0.00 0.00 0.00 0.00 0.00 0.00 0.01 0.01 0.02 0.02 0.02 0.02 0.01 0.01 0.01 0.00 0.00 0.00 0.00 0.00 0.00 0.00 0.00 0.00 0.00 0.00 0.00 0.00 0.00 0.00 0.00 0.00 0.00 0.00 0.00 0.00 0.00 0.00 0.00 0.00
0.00 0.00 0.00 0.00 0.00 0.00 0.00 0.00 0.00 0.00 0.00 0.01 0.02 0.01 0.01 0.01 0.01 0.01 0.00 0.00 0.00 0.00 0.00 0.00 0.00 0.00 0.00 0.00 0.00 0.00 0.00 0.00 0.00 0.00 0.00 0.00 0.00 0.00 0.00 0.00 0.00 0.00 0.00
0.00 0.00 0.00 0.00 0.00 0.00 0.00 0.00 0.00 0.00 0.00 0.00 0.01 0.00 0.01 0.01 0.01 0.00 0.00 0.00 0.00 0.00 0.00 0.00 0.00 0.00 0.00 0.00 0.00 0.00 0.00 0.00 0.00 0.00 0.00 0.00 0.00 0.00 0.00 0.00 0.00 0.00 0.01
0.00 0.00 0.00 0.00 0.00 0.00 0.00 0.00 0.00 0.00 0.00 0.00 0.00 0.00 0.00 0.00 0.00 0.00 0.00 0.00 0.00 0.00 0.00 0.00 0.00 0.00 0.00 0.00 0.00 0.00 0.00 0.00 0.00 0.00 0.00 0.00 0.00 0.00 0.01 0.00 0.00 0.00 0.00
0.00 0.00 0.00 0.00 0.00 0.00 0.00 0.00 0.00 0.00 0.00 0.00 0.00 0.00 0.00 0.00 0.00 0.00 0.00 0.00 0.00 0.00 0.00 0.00 0.00 0.00 0.00 0.00 0.00 0.00 0.00 0.00 0.00 0.00 0.00 0.00 0.00 0.00 0.01 0.01 0.01 0.01 0.01
0.00 0.00 0.00 0.00 0.00 0.00 0.00 0.00 0.00 0.00 0.00 0.00 0.00 0.00 0.00 0.00 0.00 0.00 0.00 0.00 0.00 0.00 0.00 0.00 0.00 0.00 0.00 0.00 0.00 0.00 0.00 0.00 0.00 0.00 0.00 0.00 0.00 0.00 0.01 0.01 0.01 0.01 0.01
0.00 0.00 0.00 0.00 0.00 0.00 0.00 0.00 0.00 0.00 0.00 0.00 0.00 0.00 0.00 0.00 0.00 0.00 0.01 0.00 0.00 0.00 0.00 0.00 0.00 0.00 0.00 0.00 0.00 0.00 0.00 0.00 0.00 0.00 0.00 0.00 0.00 0.00 0.01 0.01 0.02 0.02 0.02
0.00 0.00 0.00 0.00 0.00 0.00 0.00 0.00 0.00 0.00 0.00 0.00 0.00 0.00 0.00 0.00 0.00 0.00 0.00 0.00 0.00 0.00 0.00 0.00 0.00 0.00 0.00 0.00 0.00 0.00 0.00 0.00 0.00 0.00 0.00 0.00 0.00 0.00 0.01 0.01 0.01 0.01 0.01
0.00 0.00 0.00 0.00 0.00 0.00 0.00 0.00 0.00 0.00 0.00 0.00 0.00 0.00 0.00 0.00 0.00 0.00 0.00 0.00 0.00 0.00 0.00 0.00 0.00 0.00 0.00 0.00 0.00 0.00 0.00 0.00 0.00 0.00 0.00 0.00 0.00 0.00 0.00 0.00 0.00 0.01 0.02
0.00 0.00 0.00 0.00 0.00 0.00 0.00 0.00 0.00 0.00 0.00 0.00 0.00 0.00 0.00 0.00 0.00 0.00 0.00 0.00 0.00 0.00 0.00 0.00 0.00 0.00 0.00 0.00 0.00 0.00 0.00 0.00 0.00 0.00 0.00 0.00 0.00 0.00 0.00 0.00 0.01 0.02 0.03
MSLP
1016.91 1017.08 1017.21 1017.31 1017.38 1017.46 1017.57 1017.71 1017.89 1018.10 1018.32 1018.52 1018.69 1018.82 1018.90 1018.96 1019.00 1019.02 1019.02 1019.01 1018.98 1018.91 1018.80 1018.66 1018.48 1018.28 1018.08 1017.89 1017.71 1017.55 1017.40 1017.24 1017.07 1016.87 1016.64 1016.39 1016.12 1015.84 1015.57 1015.31 1015.07 1014.87 1014.69
1016.80 1017.00 1017.17 1017.29 1017.37 1017.43 1017.51 1017.62 1017.78 1017.98 1018.21 1018.44 1018.66 1018.84 1018.99 1019.10 1019.18 1019.22 1019.24 1019.23 1019.19 1019.12 1019.02 1018.88 1018.72 1018.54 1018.35 1018.18 1018.01 1017.87 1017.73 1017.60 1017.46 1017.30 1017.11 1016.88 1016.62 1016.34 1016.03 1015.72 1015.42 1015.14 1014.91
1016.67 1016.91 1017.10 1017.23 1017.31 1017.35 1017.40 1017.48 1017.62 1017.81 1018.04 1018.31 1018.57 1018.82 1019.03 1019.19 1019.31 1019.39 1019.43 1019.44 1019.42 1019.36 1019.27 1019.15 1019.01 1018.85 1018.67 1018.50 1018.34 1018.20 1018.07 1017.95 1017.84 1017.71 1017.56 1017.38 1017.15 1016.87 1016.56 1016.22 1015.87 1015.54 1015.25
1016.53 1016.80 1017.02 1017.16 1017.23 1017.26 1017.28 1017.33 1017.44 1017.62 1017.87 1018.16 1018.47 1018.77 1019.04 1019.26 1019.43 1019.55 1019.62 1019.66 1019.66 1019.63 1019.57 1019.48 1019.36 1019.22 1019.06 1018.89 1018.72 1018.58 1018.45 1018.34 1018.25 1018.15 1018.04 1017.90 1017.71 1017.47 1017.16 1016.82 1016.44 1016.07 1015.73
1016.39 1016.71 1016.97 1017.13 1017.19 1017.21 1017.20 1017.23 1017.32 1017.49 1017.75 1018.06 1018.41 1018.75 1019.07 1019.34 1019.55 1019.71 1019.82 1019.89 1019.93 1019.94 1019.92 1019.86 1019.77 1019.65 1019.50 1019.34 1019.17 1019.02 1018.88 1018.78 1018.70 1018.64 1018.57 1018.47 1018.33 1018.13 1017.85 1017.51 1017.13 1016.74 1016.36
1016.28 1016.66 1016.96 1017.15 1017.23 1017.24 1017.22 1017.23 1017.31 1017.47 1017.73 1018.06 1018.42 1018.80 1019.14 1019.45 1019.69 1019.88 1020.03 1020.13 1020.21 1020.25 1020.27 1020.26 1020.21 1020.12 1019.99 1019.83 1019.67 1019.51 1019.37 1019.27 1019.20 1019.16 1019.13 1019.08 1018.98 1018.82 1018.58 1018.27 1017.90 1017.50 1017.09
1016.20 1016.65 1017.00 1017.23 1017.34 1017.36 1017.35 1017.36 1017.43 1017.59 1017.85 1018.18 1018.55 1018.93 1019.29 1019.61 1019.87 1020.08 1020.24 1020.37 1020.47 1020.56 1020.62 1020.64 1020.63 1020.57 1020.47 1020.33 1020.17 1020.01 1019.88 1019.78 1019.72 1019.70 1019.70 1019.69 1019.63 1019.52 1019.32 1019.04 1018.69 1018.29 1017.88
1016.12 1016.65 1017.07 1017.35 1017.51 1017.57 1017.58 1017.60 1017.68 1017.84 1018.09 1018.41 1018.78 1019.16 1019.51 1019.82 1020.08 1020.29 1020.46 1020.60 1020.72 1020.82 1020.91 1020.97 1020.99 1020.97 1020.89 1020.78 1020.64 1020.49 1020.37 1020.28 1020.23 1020.23 1020.24 1020.26 1020.24 1020.17 1020.01 1019.76 1019.44 1019.05 1018.64
1016.02 1016.61 1017.09 1017.44 1017.66 1017.77 1017.83 1017.89 1017.99 1018.17 1018.41 1018.73 1019.08 1019.44 1019.77 1020.06 1020.30 1020.49 1020.65 1020.79 1020.91 1021.03 1021.14 1021.23 1021.28 1021.29 1021.25 1021.16 1021.04 1020.92 1020.80 1020.73 1020.69 1020.69 1020.73 1020.76 1020.77 1020.73 1020.60 1020.39 1020.10 1019.74 1019.34
1015.81 1016.45 1017.00 1017.42 1017.71 1017.89 1018.02 1018.13 1018.27 1018.47 1018.73 1019.04 1019.38 1019.72 1020.02 1020.29 1020.51 1020.68 1020.82 1020.95 1021.07 1021.19 1021.31 1021.42 1021.49 1021.53 1021.52 1021.46 1021.37 1021.27 1021.17 1021.11 1021.08 1021.09 1021.13 1021.17 1021.20 1021.17 1021.07 1020.89 1020.63 1020.30 1019.92
1015.45 1016.12 1016.71 1017.19 1017.56 1017.83 1018.03 1018.22 1018.42 1018.66 1018.95 1019.27 1019.60 1019.93 1020.22 1020.46 1020.66 1020.81 1020.94 1021.06 1021.18 1021.31 1021.44 1021.56 1021.65 1021.71 1021.73 1021.70 1021.64 1021.56 1021.48 1021.42 1021.39 1021.40 1021.44 1021.48 1021.51 1021.49 1021.41 1021.26 1021.02 1020.72 1020.38
1014.90 1015.58 1016.19 1016.72 1017.16 1017.51 1017.81 1018.08 1018.36 1018.66 1018.99 1019.34 1019.69 1020.01 1020.30 1020.54 1020.73 1020.89 1021.02 1021.14 1021.26 1021.39 1021.53 1021.67 1021.78 1021.87 1021.91 1021.90 1021.86 1021.80 1021.73 1021.67 1021.64 1021.64 1021.66 1021.69 1021.71 1021.70 1021.63 1021.49 1021.28 1021.01 1020.69
1014.19 1014.83 1015.45 1016.01 1016.50 1016.94 1017.32 1017.69 1018.05 1018.43 1018.82 1019.21 1019.59 1019.94 1020.25 1020.50 1020.71 1020.88 1021.03 1021.17 1021.31 1021.46 1021.62 1021.77 1021.90 1022.00 1022.06 1022.07 1022.05 1021.99 1021.93 1021.87 1021.83 1021.81 1021.82 1021.83 1021.83 1021.81 1021.74 1021.61 1021.42 1021.17 1020.87
1013.36 1013.94 1014.54 1015.11 1015.64 1016.14 1016.61 1017.07 1017.52 1017.97 1018.43 1018.88 1019.31 1019.70 1020.04 1020.34 1020.58 1020.79 1020.97 1021.14 1021.32 1021.50 1021.67 1021.85 1022.00 1022.11 1022.19 1022.21 1022.20 1022.15 1022.08 1022.01 1021.96 1021.92 1021.90 1021.89 1021.87 1021.83 1021.76 1021.64 1021.46 1021.22 1020.94
1012.50 1013.01 1013.55 1014.11 1014.67 1015.21 1015.75 1016.28 1016.81 1017.34 1017.87 1018.38 1018.86 1019.31 1019.70 1020.04 1020.33 1020.59 1020.82 1021.04 1021.25 1021.46 1021.67 1021.87 1022.04 1022.17 1022.25 1022.29 1022.28 1022.23 1022.16 1022.08 1022.01 1021.95 1021.90 1021.87 1021.83 1021.78 1021.69 1021.57 1021.39 1021.16 1020.88
1011.73 1012.13 1012.61 1013.13 1013.68 1014.25 1014.83 1015.41 1016.01 1016.61 1017.19 1017.76 1018.30 1018.79 1019.24 1019.63 1019.97 1020.28 1020.56 1020.83 1021.08 1021.33 1021.57 1021.78 1021.97 1022.12 1022.21 1022.26 1022.26 1022.21 1022.14 1022.05 1021.97 1021.89 1021.82 1021.77 1021.71 1021.64 1021.55 1021.41 1021.23 1021.00 1020.72
1011.11 1011.41 1011.79 1012.26 1012.77 1013.34 1013.93 1014.55 1015.19 1015.83 1016.46 1017.07 1017.65 1018.19 1018.68 1019.11 1019.50 1019.85 1020.18 1020.48 1020.77 1021.05 1021.31 1021.55 1021.75 1021.91 1022.02 1022.08 1022.09 1022.06 1021.99 1021.90 1021.81 1021.73 1021.65 1021.57 1021.50 1021.42 1021.31 1021.17 1020.98 1020.74 1020.45
1010.71 1010.88 1011.17 1011.55 1012.01 1012.54 1013.12 1013.74 1014.39 1015.05 1015.70 1016.34 1016.95 1017.51 1018.03 1018.50 1018.92 1019.30 1019.65 1019.98 1020.29 1020.59 1020.87 1021.12 1021.34 1021.52 1021.65 1021.73 1021.76 1021.74 1021.69 1021.62 1021.54 1021.45 1021.37 1021.29 1021.21 1021.12 1021.00 1020.84 1020.64 1020.39 1020.08
1010.52 1010.57 1010.74 1011.02 1011.40 1011.87 1012.40 1012.99 1013.62 1014.28 1014.94 1015.58 1016.20 1016.78 1017.31 1017.79 1018.23 1018.63 1019.00 1019.34 1019.66 1019.96 1020.25 1020.51 1020.75 1020.95 1021.10 1021.21 1021.27 1021.29 1021.27 1021.22 1021.16 1021.09 1021.01 1020.93 1020.84 1020.74 1020.61 1020.44 1020.22 1019.95 1019.62
1010.52 1010.44 1010.48 1010.64 1010.92 1011.29 1011.76 1012.29 1012.88 1013.50 1014.14 1014.77 1015.39 1015.97 1016.51 1017.00 1017.44 1017.85 1018.21 1018.56 1018.88 1019.19 1019.48 1019.75 1020.01 1020.23 1020.42 1020.56 1020.66 1020.72 1020.74 1020.73 1020.70 1020.65 1020.58 1020.51 1020.41 1020.30 1020.15 1019.96 1019.72 1019.43 1019.09
1010.64 1010.42 1010.33 1010.36 1010.51 1010.78 1011.14 1011.59 1012.12 1012.69 1013.29 1013.90 1014.50 1015.08 1015.61 1016.11 1016.56 1016.96 1017.33 1017.67 1018.00 1018.31 1018.61 1018.90 1019.17 1019.42 1019.65 1019.84 1019.99 1020.09 1020.16 1020.19 1020.19 1020.16 1020.11 1020.03 1019.93 1019.80 1019.63 1019.42 1019.16 1018.85 1018.49
1010.82 1010.47 1010.24 1010.13 1010.15 1010.28 1010.53 1010.88 1011.31 1011.82 1012.37 1012.95 1013.52 1014.09 1014.62 1015.12 1015.57 1015.99 1016.36 1016.71 1017.04 1017.36 1017.68 1017.99 1018.29 1018.58 1018.84 1019.08 1019.28 1019.44 1019.55 1019.62 1019.65 1019.64 1019.59 1019.50 1019.39 1019.24 1019.05 1018.82 1018.54 1018.21 1017.84
1011.02 1010.55 1010.18 1009.93 1009.80 1009.79 1009.90 1010.13 1010.47 1010.89 1011.37 1011.90 1012.45 1013.00 1013.53 1014.03 1014.50 1014.93 1015.32 1015.69 1016.04 1016.39 1016.73 1017.06 1017.40 1017.73 1018.04 1018.32 1018.57 1018.77 1018.92 1019.02 1019.07 1019.07 1019.02 1018.92 1018.79 1018.61 1018.40 1018.15 1017.85 1017.52 1017.14
1011.23 1010.64 1010.14 1009.75 1009.47 1009.31 1009.28 1009.37 1009.59 1009.91 1010.31 1010.78 1011.29 1011.82 1012.34 1012.85 1013.33 1013.78 1014.21 1014.61 1014.99 1015.37 1015.75 1016.13 1016.51 1016.88 1017.23 1017.56 1017.85 1018.08 1018.26 1018.38 1018.44 1018.43 1018.37 1018.26 1018.10 1017.90 1017.67 1017.40 1017.10 1016.77 1016.40
1011.42 1010.73 1010.12 1009.59 1009.17 1008.86 1008.68 1008.63 1008.72 1008.92 1009.22 1009.61 1010.06 1010.55 1011.06 1011.56 1012.06 1012.54 1013.00 1013.44 1013.87 1014.30 1014.73 1015.16 1015.59 1016.00 1016.40 1016.76 1017.08 1017.34 1017.54 1017.66 1017.71 1017.70 1017.62 1017.49 1017.31 1017.10 1016.85 1016.58 1016.29 1015.97 1015.63
1011.59 1010.83 1010.11 1009.47 1008.91 1008.46 1008.14 1007.94 1007.88 1007.95 1008.14 1008.42 1008.79 1009.22 1009.69 1010.18 1010.68 1011.18 1011.68 1012.17 1012.65 1013.14 1013.63 1014.11 1014.59 1015.06 1015.49 1015.89 1016.23 1016.51 1016.71 1016.83 1016.87 1016.84 1016.75 1016.60 1016.41 1016.19 1015.95 1015.69 1015.42 1015.14 1014.84
Thickness
5732 5733 5733 5734 5735 5734 5733 5731 5729 5728 5727 5726 5725 5723 5722 5721 5719 5717 5716 5716 5716 5716 5716 5717 5716 5715 5714 5713 5713 5712 5711 5711 5712 5712 5711 5712 5713 5712 5712 5713 5715 5716 5716
5729 5730 5731 5731 5732 5731 5730 5729 5727 5726 5725 5723 5723 5721 5719 5719 5717 5715 5714 5714 5714 5714 5715 5715 5715 5713 5712 5711 5710 5708 5708 5708 5709 5708 5707 5706 5708 5708 5711 5711 5711 5714 5714
5729 5729 5729 5729 5729 5728 5727 5726 5725 5723 5722 5721 5721 5719 5717 5717 5716 5713 5712 5711 5711 5711 5711 5712 5712 5711 5711 5709 5707 5707 5705 5705 5706 5707 5704 5701 5699 5702 5707 5708 5710 5710 5711
5729 5729 5727 5727 5726 5726 5725 5725 5722 5722 5721 5719 5718 5717 5714 5713 5712 5712 5711 5710 5709 5709 5709 5709 5709 5709 5709 5707 5707 5705 5704 5702 5702 5703 5702 5702 5700 5698 5699 5704 5707 5708 5709
5729 5728 5727 5726 5726 5724 5722 5721 5720 5718 5717 5716 5714 5713 5712 5711 5711 5710 5709 5709 5708 5707 5706 5706 5707 5707 5706 5704 5703 5702 5701 5701 5700 5699 5699 5699 5699 5700 5697 5696 5700 5705 5707
5728 5727 5726 5724 5723 5720 5717 5716 5715 5713 5712 5712 5711 5710 5708 5707 5706 5706 5706 5706 5706 5705 5704 5704 5704 5704 5703 5701 5700 5699 5698 5697 5696 5697 5697 5696 5695 5694 5695 5695 5697 5699 5702
5729 5725 5723 5721 5719 5716 5714 5713 5711 5710 5709 5709 5709 5708 5706 5706 5705 5705 5703 5704 5704 5704 5703 5702 5701 5700 5699 5698 5697 5696 5695 5694 5693 5693 5693 5693 5693 5693 5693 5693 5694 5695 5700
5729 5726 5723 5721 5718 5715 5713 5712 5710 5708 5706 5706 5706 5705 5704 5703 5703 5702 5702 5702 5702 5702 5700 5699 5699 5697 5696 5695 5694 5694 5692 5692 5691 5689 5688 5689 5689 5690 5690 5690 5690 5691 5695
5727 5725 5722 5720 5717 5715 5712 5710 5708 5706 5704 5704 5703 5702 5701 5700 5700 5700 5700 5700 5700 5699 5698 5698 5697 5695 5693 5692 5691 5690 5689 5688 5687 5686 5685 5685 5685 5685 5685 5686 5687 5685 5686
5728 5725 5722 5719 5717 5715 5712 5709 5707 5705 5702 5701 5701 5699 5698 5697 5697 5698 5697 5697 5698 5696 5696 5696 5695 5693 5691 5689 5688 5687 5685 5685 5682 5681 5681 5680 5681 5680 5681 5681 5682 5683 5682
5728 5725 5721 5719 5716 5713 5710 5707 5705 5703 5701 5700 5699 5697 5696 5695 5695 5695 5695 5694 5694 5694 5694 5693 5692 5690 5688 5687 5684 5683 5682 5681 5680 5679 5678 5676 5675 5675 5676 5676 5677 5677 5677
5729 5725 5722 5718 5714 5712 5710 5708 5706 5703 5700 5699 5697 5696 5695 5695 5695 5694 5693 5693 5692 5691 5691 5690 5688 5686 5684 5683 5681 5679 5678 5676 5675 5674 5673 5672 5671 5669 5670 5669 5670 5671 5671
5727 5724 5720 5717 5714 5712 5710 5708 5706 5703 5700 5698 5697 5696 5696 5695 5694 5693 5691 5690 5689 5688 5687 5686 5684 5682 5680 5678 5677 5676 5674 5673 5671 5669 5668 5667 5666 5664 5664 5663 5664 5664 5664
5726 5723 5719 5717 5714 5712 5710 5708 5705 5702 5699 5698 5696 5696 5696 5694 5692 5690 5688 5687 5686 5685 5683 5681 5679 5677 5675 5674 5673 5671 5670 5669 5667 5665 5663 5661 5659 5657 5657 5656 5656 5656 5656
5726 5723 5720 5718 5715 5712 5710 5708 5705 5702 5700 5697 5696 5695 5694 5691 5689 5687 5685 5683 5681 5680 5678 5676 5674 5672 5670 5668 5666 5665 5664 5663 5662 5660 5658 5655 5650 5647 5646 5646 5646 5646 5646
5727 5725 5722 5719 5716 5713 5711 5708 5704 5702 5700 5697 5695 5692 5690 5688 5685 5683 5681 5679 5676 5675 5673 5671 5669 5667 5664 5660 5657 5656 5658 5658 5656 5654 5652 5649 5645 5641 5638 5636 5634 5633 5634
5729 5726 5723 5720 5718 5716 5713 5707 5705 5702 5699 5696 5693 5689 5687 5684 5682 5679 5677 5674 5672 5670 5668 5666 5664 5662 5658 5653 5651 5649 5650 5651 5649 5647 5644 5642 5639 5634 5634 5632 5628 5627 5624
5731 5727 5724 5721 5718 5716 5711 5708 5704 5700 5697 5694 5690 5687 5684 5681 5678 5675 5672 5670 5669 5666 5662 5660 5658 5655 5652 5647 5645 5643 5644 5644 5641 5638 5636 5633 5631 5627 5624 5624 5623 5622 5620
5734 5730 5726 5722 5718 5714 5710 5706 5702 5698 5694 5691 5688 5685 5681 5677 5674 5671 5668 5666 5663 5661 5658 5655 5652 5649 5647 5641 5638 5635 5638 5637 5634 5631 5627 5624 5622 5616 5613 5613 5614 5613 5612
5732 5728 5724 5721 5716 5712 5708 5703 5700 5696 5692 5688 5685 5682 5678 5674 5670 5667 5664 5661 5658 5655 5652 5649 5647 5644 5641 5635 5631 5627 5630 5629 5627 5624 5621 5615 5611 5606 5602 5602 5603 5602 5602
5727 5723 5720 5716 5712 5709 5704 5700 5697 5693 5690 5685 5681 5678 5674 5670 5666 5662 5659 5656 5652 5649 5647 5644 5641 5638 5634 5629 5624 5620 5619 5618 5617 5616 5613 5610 5602 5597 5593 5590 5591 5589 5587
5721 5718 5714 5710 5707 5704 5700 5697 5693 5690 5685 5680 5675 5672 5669 5665 5661 5656 5653 5650 5647 5643 5640 5638 5635 5632 5628 5622 5618 5613 5609 5606 5606 5605 5603 5600 5592 5588 5584 5582 5580 5577 5574
5716 5713 5709 5705 5702 5699 5696 5692 5688 5684 5679 5674 5670 5667 5664 5659 5655 5651 5647 5644 5640 5638 5635 5632 5629 5626 5623 5617 5611 5606 5602 5598 5596 5596 5591 5587 5582 5579 5577 5574 5570 5567 5566
5712 5708 5704 5700 5697 5694 5691 5688 5684 5679 5674 5670 5666 5662 5658 5654 5651 5646 5642 5638 5635 5632 5629 5625 5622 5619 5616 5611 5606 5602 5597 5591 5588 5586 5583 5577 5574 5570 5567 5565 5562 5559 5556
5707 5703 5701 5697 5693 5689 5685 5682 5678 5674 5670 5666 5661 5657 5653 5649 5644 5640 5636 5632 5629 5625 5620 5618 5614 5611 5607 5603 5595 5589 5588 5584 5580 5575 5573 5571 5568 5565 5562 5558 5553 5548 5544
5702 5698 5695 5691 5689 5685 5680 5676 5672 5668 5665 5661 5656 5651 5647 5641 5637 5633 5629 5623 5619 5614 5609 5605 5601 5600 5595 5590 5584 5579 5574 5570 5565 5562 5564 5562 5559 5555 5551 5547 5542 5538 5534